Theta_e
290 287 285 286 288 288 289 290 290 291 288 286 285 285 284 284 285 286 286 290 290 289 286 288 286 285 287 287 289 290 290 289 288 288 288 288 288 288 288 288 288 288 288 289 289 289 290 290 291 291 291 291 292 292 292 292 293 293 294 294 294 296 297 297 298 300 301 303 307 307 306 306 307 308 309 309 309 309 309 310 310 310 311 311 310 309
292 286 286 290 291 290 291 290 288 288 287 287 286 284 284 282 285 287 288 289 288 289 284 283 284 287 288 287 289 289 289 287 287 287 287 287 287 287 287 287 287 287 288 288 288 288 288 289 289 290 290 291 289 290 291 291 291 292 293 293 293 294 295 295 296 297 299 299 301 303 303 302 302 303 303 303 305 306 307 306 307 308 309 308 308 308
286 286 290 292 292 290 289 288 287 287 287 285 285 284 283 285 284 288 288 287 288 288 286 284 286 288 287 286 288 287 287 287 288 287 287 287 286 286 286 286 286 286 286 286 287 287 287 287 288 289 289 289 289 289 290 290 291 291 291 292 292 293 293 294 295 296 296 296 297 298 298 300 299 299 300 300 299 301 302 302 302 301 304 305 305 305
285 286 291 291 290 289 288 287 286 286 285 284 284 283 284 284 285 284 285 286 289 287 285 283 284 287 285 287 287 287 287 287 287 287 287 287 286 285 286 285 285 285 285 285 285 285 286 286 287 287 287 288 288 288 288 289 290 290 290 290 291 291 292 293 294 295 295 296 295 296 296 296 296 295 296 297 296 296 296 296 296 296 298 299 300 300
290 290 290 289 288 289 288 287 286 285 285 283 285 284 284 285 285 286 286 285 284 287 284 284 284 284 283 286 285 286 287 287 287 287 286 286 286 286 286 286 285 284 284 284 284 284 285 285 285 285 286 287 287 287 287 288 288 289 289 290 290 291 291 292 293 293 294 295 295 295 296 295 294 294 293 293 293 292 293 293 293 292 293 294 294 295
288 291 289 288 287 287 287 286 285 286 283 282 283 288 288 287 286 283 284 286 282 282 282 284 278 276 279 281 284 285 285 285 285 284 284 285 284 284 284 283 284 284 284 284 283 284 284 284 285 285 285 285 286 286 286 287 287 288 288 289 289 290 290 290 291 292 293 293 292 292 291 290 290 289 289 289 289 290 290 290 291 291 292 292 292 292
289 291 292 290 287 286 286 285 284 288 283 284 287 286 289 287 285 284 283 284 280 278 284 283 281 275 279 281 284 284 283 283 283 283 283 284 283 283 283 283 283 283 283 283 283 283 283 283 284 284 284 285 285 285 286 286 287 287 287 287 288 288 289 290 290 291 291 291 291 290 289 289 289 288 288 288 289 289 289 290 290 290 290 290 290 290
288 288 288 288 287 285 285 285 286 288 285 284 284 283 285 285 285 283 283 284 281 280 282 282 284 278 275 282 285 284 283 281 282 282 282 283 282 282 282 282 282 282 282 282 282 282 283 283 283 283 284 284 284 285 285 285 286 286 286 286 286 287 288 288 289 289 290 289 289 289 288 289 288 287 287 288 288 289 289 288 288 288 289 289 289 289
289 287 286 286 287 285 287 288 286 289 287 284 285 283 283 284 283 282 284 281 281 282 278 279 281 280 275 280 282 284 282 281 281 282 282 282 282 282 281 282 281 282 282 281 281 282 282 282 282 283 283 284 284 284 284 284 285 285 285 285 285 285 286 286 287 288 288 288 288 287 287 286 287 287 287 287 287 287 287 286 286 286 286 287 287 287
289 289 287 289 287 286 287 284 286 290 287 286 284 284 283 282 282 280 279 282 279 278 273 279 281 277 278 279 281 283 282 281 281 282 282 282 282 281 281 282 282 281 281 281 281 281 282 282 282 282 282 283 283 284 284 284 284 284 284 285 284 284 285 285 285 286 286 286 286 286 285 284 284 285 285 285 284 284 284 284 284 285 285 285 285 285
288 290 290 288 288 288 285 285 285 288 287 285 285 285 282 280 279 279 278 276 279 272 276 281 282 283 277 280 281 281 282 281 282 282 281 281 281 282 281 281 281 281 280 280 280 281 281 281 281 281 282 282 282 283 283 283 283 283 284 283 283 283 284 284 284 285 285 285 285 284 284 284 283 283 283 283 283 283 283 282 283 283 283 284 284 284
286 287 289 287 289 287 286 286 284 283 284 285 284 282 281 284 277 276 270 275 273 271 274 277 280 281 275 277 280 281 282 281 284 282 281 280 280 281 281 281 281 280 280 280 280 280 280 281 281 281 281 281 281 282 282 282 283 283 283 283 283 283 283 283 284 284 284 284 284 284 284 283 283 283 283 282 282 282 282 282 282 282 283 283 283 284
285 287 285 287 290 290 285 284 285 283 282 284 282 282 277 273 273 271 270 273 271 273 277 278 280 280 280 281 282 281 281 281 281 283 283 281 281 281 280 281 281 280 279 279 279 279 279 279 279 280 280 281 281 281 281 282 282 282 282 283 282 282 282 283 283 283 283 284 284 284 283 284 284 284 283 283 283 283 282 282 283 283 283 283 283 284
283 281 285 287 288 289 289 285 282 283 282 283 284 278 273 271 270 266 267 266 268 274 277 280 281 279 279 281 279 279 281 281 281 283 283 282 281 281 280 280 280 280 279 279 279 279 279 279 279 279 280 280 281 281 281 281 282 282 282 282 283 282 282 282 283 283 283 283 283 284 284 283 284 284 284 284 284 284 284 284 283 283 283 283 283 284
276 280 284 286 285 287 290 290 288 281 282 283 282 284 281 272 265 268 265 272 274 274 276 277 276 272 277 281 277 280 280 280 280 281 282 281 280 280 279 279 279 279 279 279 279 279 279 279 279 279 280 280 280 280 281 282 282 282 281 282 282 282 282 283 282 282 283 283 283 283 284 284 284 284 284 284 285 284 284 285 284 284 284 284 284 284
281 280 284 286 287 288 288 287 285 283 284 281 280 282 279 280 278 276 271 268 267 270 272 274 276 275 280 279 281 280 280 280 280 281 281 280 280 279 279 279 279 279 279 279 278 278 279 279 279 280 280 280 280 280 280 281 281 281 280 280 281 281 281 283 283 282 282 282 283 283 283 284 285 285 285 285 285 285 285 285 285 284 284 284 285 285
281 279 283 286 286 286 286 286 288 286 281 282 283 280 283 283 284 274 272 272 272 269 274 270 277 280 280 280 278 279 279 279 279 279 279 279 279 278 279 279 279 279 278 278 278 278 278 279 279 279 279 280 280 280 280 280 280 280 281 281 281 281 281 282 283 284 285 284 284 284 284 285 285 285 284 284 284 285 285 285 285 284 284 284 285 285
282 279 283 285 286 288 284 286 285 285 287 285 280 283 284 284 281 280 274 269 263 269 273 270 275 277 279 276 278 278 277 278 278 278 279 279 278 279 279 279 279 279 279 278 278 278 278 279 279 279 280 280 280 281 281 282 282 282 282 283 283 283 283 284 284 285 285 285 284 284 284 284 284 284 284 284 283 284 284 284 284 284 284 283 284 284
287 281 283 285 285 288 285 288 287 287 288 284 282 284 286 279 280 280 274 272 269 267 266 271 274 276 278 280 276 278 277 278 278 278 278 279 279 279 279 279 279 278 279 279 279 280 280 280 280 281 282 282 283 283 282 283 284 284 283 283 284 284 284 284 285 284 284 284 285 285 284 283 283 282 283 283 283 283 283 283 283 283 283 283 283 283
286 282 281 285 287 287 285 284 280 283 288 286 286 286 285 284 280 277 280 274 273 267 266 268 269 277 278 279 280 281 280 279 279 278 279 279 279 280 280 280 279 280 280 280 281 281 282 282 281 281 281 281 282 283 284 284 283 283 284 283 284 283 283 283 284 284 283 284 283 283 283 283 283 282 282 281 281 281 281 282 282 282 282 282 282 281
286 284 277 282 284 285 282 284 283 285 284 284 285 282 285 281 283 281 279 275 276 263 266 268 270 273 276 279 280 281 281 280 280 280 280 280 281 281 281 281 281 282 281 281 281 281 281 281 282 282 282 283 283 283 282 283 284 284 283 283 283 282 282 282 282 282 281 282 282 282 281 281 281 282 282 282 282 282 281 281 281 281 281 281 281 281
285 283 280 280 283 282 281 282 283 283 287 285 286 284 286 281 279 278 279 278 271 274 271 268 274 274 279 281 281 279 281 282 282 282 281 281 282 282 283 282 282 281 280 280 280 280 281 282 282 282 283 283 283 283 283 283 283 283 283 282 282 282 281 281 280 281 282 282 282 281 281 280 281 281 281 281 281 281 281 280 280 280 280 280 280 280
288 284 281 278 280 284 284 286 283 285 285 286 288 286 285 283 283 277 277 277 272 275 271 269 271 277 280 279 280 280 281 282 281 281 281 282 282 282 281 280 281 281 281 281 281 282 283 283 283 283 283 282 282 283 282 283 283 283 283 282 282 281 281 280 280 280 280 280 280 279 279 280 279 279 279 279 280 280 280 280 280 280 279 279 279 279
291 285 282 282 282 283 285 284 285 285 287 287 284 282 283 283 284 284 281 275 273 273 275 274 275 279 282 281 279 280 280 281 281 281 282 283 282 282 281 281 282 282 283 283 283 283 283 283 283 283 282 282 282 282 282 281 282 281 281 280 280 280 279 279 280 280 280 280 279 279 279 279 279 279 279 279 279 279 279 279 279 280 279 279 279 279
287 286 285 280 279 282 283 285 286 286 284 280 281 280 280 278 278 276 276 276 276 278 277 275 274 280 281 280 280 279 280 280 281 281 282 283 283 284 284 284 284 284 284 283 283 283 283 283 282 282 281 281 281 280 280 280 279 279 279 278 278 278 278 277 277 277 278 277 277 277 277 277 277 277 277 277 277 277 278 278 278 278 278 278 277 277
288 285 284 280 278 276 275 275 277 280 283 282 280 281 281 284 281 281 278 277 278 282 282 278 278 283 282 281 281 280 280 279 280 281 282 283 284 285 284 284 283 282 282 282 281 281 281 281 281 279 279 279 279 279 278 277 278 277 277 277 277 277 277 277 277 277 277 277 277 276 276 276 276 276 276 276 276 276 276 276 276 275 275 276 275 275
286 284 285 286 284 282 282 279 281 283 280 279 278 280 281 280 282 282 279 277 278 280 278 281 281 278 281 282 280 280 279 281 282 281 282 283 282 282 281 281 281 281 281 281 281 280 279 279 279 279 279 278 277 277 277 277 277 276 276 276 276 276 276 276 276 276 276 276 275 275 275 275 275 275 275 275 275 275 275 274 273 273 273 273 273 272
284 283 284 283 283 283 281 280 282 283 282 280 280 280 277 278 278 280 280 277 279 277 276 283 278 276 281 281 282 282 281 281 282 281 282 282 283 283 282 280 282 279 279 279 279 279 279 279 279 279 278 277 277 276 276 276 277 276 276 275 275 275 275 276 275 275 275 275 274 274 273 274 274 274 274 274 274 274 273 272 271 271 271 271 271 271
284 283 284 282 281 281 282 282 283 282 282 282 282 283 282 281 278 278 274 279 280 279 278 283 281 281 282 283 280 282 283 283 283 283 284 285 284 281 279 280 280 279 280 279 279 279 279 279 279 278 277 277 276 276 277 276 276 275 275 275 274 274 274 274 274 273 273 272 272 272 272 273 273 273 272 272 271 271 270 270 270 269 269 269 269 270
283 278 279 282 280 281 281 281 282 283 282 282 283 283 283 282 280 281 280 281 281 280 281 280 279 279 282 281 279 282 282 282 281 283 282 281 282 281 278 279 280 280 279 279 279 279 279 279 279 278 277 276 277 277 277 276 275 275 274 274 273 273 273 272 272 271 271 271 271 271 272 272 271 271 270 270 269 269 268 268 268 267 267 267 267 267
286 278 282 278 279 275 273 277 278 279 279 280 282 282 280 278 279 280 280 279 279 278 280 279 278 278 283 282 281 280 280 280 281 281 281 281 279 279 279 279 280 279 279 279 279 278 278 278 277 276 277 277 277 277 277 276 275 274 273 273 273 272 272 271 271 271 270 270 271 271 271 270 270 269 268 268 267 266 266 266 265 265 265 265 265 265
282 277 278 276 277 274 273 275 276 275 275 274 274 276 276 276 276 278 276 278 277 275 277 275 272 275 281 276 277 275 277 279 281 282 282 279 278 279 279 279 279 279 278 279 278 278 277 277 276 276 277 277 277 277 276 275 274 273 272 272 272 271 271 270 270 269 269 270 270 270 269 268 267 266 266 265 265 264 264 264 263 263 263 263 263 264
281 278 276 274 274 273 275 274 274 273 275 275 276 278 276 277 279 278 277 278 280 279 273 271 274 280 278 278 278 278 277 278 278 279 279 279 278 278 279 279 279 279 279 278 278 278 277 277 277 277 277 277 277 276 275 274 273 272 272 271 271 270 269 269 268 268 268 268 268 267 267 266 265 264 264 264 263 263 263 262 262 262 262 261 262 263
280 281 277 278 275 272 272 271 271 270 267 272 278 278 279 276 276 275 276 278 278 279 276 279 279 278 277 276 278 278 278 277 279 279 280 280 279 277 278 278 278 279 278 278 278 278 278 277 277 277 277 277 275 274 273 272 272 271 271 270 270 268 268 267 267 267 267 266 266 265 265 265 263 263 263 262 262 262 261 261 261 261 261 262 262 262
279 280 277 276 274 270 270 270 271 268 270 277 275 276 276 276 276 276 277 277 276 278 278 278 277 277 278 279 279 279 278 278 276 276 277 277 278 279 278 278 278 278 277 277 276 277 277 277 277 276 275 273 272 271 271 270 271 270 269 269 268 267 266 266 265 265 266 264 264 264 263 263 262 262 262 261 261 261 260 260 260 260 261 261 261 260
278 278 275 273 273 271 269 271 267 268 278 276 276 275 276 275 276 275 273 276 276 276 277 277 278 279 279 279 277 274 275 275 274 274 274 274 277 279 278 278 277 276 276 276 277 277 277 277 277 276 274 273 271 271 270 269 269 268 267 267 266 265 264 264 263 265 264 263 262 262 263 262 261 261 261 261 260 259 260 260 259 259 260 260 260 260
281 276 276 274 278 270 273 272 273 276 276 279 278 273 275 273 273 273 267 273 276 276 276 276 277 278 277 276 274 274 274 273 273 275 274 274 275 275 278 278 277 276 277 277 277 278 278 278 277 275 273 271 270 269 269 268 267 266 265 265 265 264 264 263 262 263 263 262 262 262 262 262 261 260 260 260 259 259 259 259 259 259 259 259 259 259
282 280 280 277 273 274 269 269 268 266 267 272 274 273 276 276 276 275 273 269 275 273 277 277 277 278 276 272 272 273 273 273 271 274 276 275 275 276 275 276 275 276 276 276 276 276 276 275 273 272 271 269 268 268 267 266 265 264 264 263 263 263 263 261 262 263 261 262 261 262 262 261 259 259 259 258 258 258 259 259 259 258 259 258 258 258
279 280 279 279 273 270 269 269 268 266 268 274 272 274 275 276 275 273 267 264 273 271 272 275 274 272 274 272 272 272 271 265 267 273 277 275 274 275 276 276 275 275 276 277 277 275 274 273 272 270 269 268 266 266 265 264 263 263 263 262 262 262 261 262 262 262 261 261 262 261 260 259 259 259 258 258 258 258 258 258 258 258 258 258 258 258
274 275 275 272 270 272 270 268 267 266 267 269 264 268 273 271 275 271 259 260 266 270 271 274 275 272 272 272 273 273 272 265 269 274 277 277 277 276 276 276 275 275 275 275 274 274 273 271 269 268 267 266 266 265 263 262 262 261 262 262 262 261 260 262 262 262 261 261 261 260 259 258 258 258 257 258 258 257 257 258 257 258 258 257 257 257
274 272 275 271 273 273 273 266 264 266 270 268 271 271 273 272 271 263 264 265 271 272 273 273 275 275 273 272 273 270 274 276 277 278 275 275 275 275 274 275 276 276 275 274 273 274 271 270 270 269 267 266 264 263 262 262 261 260 261 261 261 260 261 261 261 261 260 261 259 258 258 257 256 257 257 257 257 257 257 257 257 257 257 256 257 256
267 269 270 273 270 270 271 269 269 272 273 271 272 275 275 273 263 266 271 273 275 274 273 275 276 275 274 274 274 276 277 277 277 275 273 275 277 278 276 274 273 272 272 273 273 271 270 269 267 265 264 264 263 263 262 260 260 260 261 260 259 259 261 261 261 260 258 258 257 257 256 256 256 256 256 256 256 256 256 257 257 256 256 256 256 255
269 269 267 271 273 270 269 268 268 264 274 277 275 274 275 267 268 273 272 274 275 275 275 273 275 275 274 274 275 276 277 276 275 275 274 275 275 276 275 274 273 272 271 270 270 269 269 267 265 265 263 263 262 262 262 258 258 258 259 258 260 260 259 259 259 259 258 256 255 255 255 255 255 255 255 255 256 255 255 256 256 255 255 255 255 255
270 263 261 266 274 265 269 266 267 274 275 277 277 272 272 277 275 274 275 273 274 274 274 274 274 275 275 276 276 275 275 275 274 274 273 273 274 275 274 274 273 273 272 271 271 269 268 267 265 264 262 262 262 261 261 258 257 257 257 259 260 259 258 258 257 256 254 254 254 254 254 254 254 255 254 255 255 254 254 255 255 255 255 255 255 255
273 268 268 265 269 268 267 273 275 275 276 278 279 278 278 280 278 274 275 277 276 274 274 274 275 275 275 275 276 276 275 275 276 276 275 276 275 274 274 273 273 273 272 271 269 267 267 267 264 263 261 261 260 259 258 257 257 257 256 258 259 258 257 256 254 253 252 252 252 252 253 253 253 253 254 254 254 254 255 255 254 254 254 254 255 254
271 273 272 270 268 272 273 274 274 273 274 277 278 278 278 278 277 276 276 276 275 276 275 276 276 276 275 275 274 274 275 276 276 274 273 274 274 274 274 273 271 270 268 267 265 265 264 263 262 261 260 259 259 259 258 257 256 255 256 258 257 256 255 254 253 252 253 252 252 253 253 253 253 254 254 254 254 254 254 254 254 254 254 254 254 254
271 272 271 269 270 269 265 272 272 274 273 275 278 279 277 276 276 276 275 276 278 277 275 276 277 277 276 274 274 276 276 276 275 275 275 274 273 273 273 272 272 270 268 267 266 263 262 261 261 259 259 258 258 258 257 255 256 256 256 255 257 256 254 252 252 252 252 252 252 253 252 253 253 254 254 253 254 254 254 255 254 254 254 254 254 254
270 273 271 272 269 270 268 272 273 274 274 275 277 277 277 279 277 275 277 277 277 277 276 277 275 274 274 273 275 275 276 276 275 275 275 274 274 274 273 272 271 268 266 266 264 262 261 261 262 259 258 258 259 258 257 255 255 255 254 254 255 253 251 252 252 252 251 252 252 253 252 253 255 255 254 254 254 254 254 254 254 254 254 254 255 255
272 274 264 268 270 269 273 273 273 273 274 275 275 276 278 279 279 277 276 276 275 275 275 275 274 276 275 276 276 275 274 275 275 275 275 275 274 273 272 272 270 269 266 263 262 261 263 262 260 259 258 258 258 257 256 254 254 253 254 256 253 251 251 251 252 252 250 251 252 252 253 253 253 253 253 253 254 254 254 254 254 255 256 258 258 258
272 272 272 269 265 264 268 274 275 267 269 275 277 278 277 277 276 276 275 273 273 274 274 275 275 274 275 275 275 274 273 275 275 274 274 275 275 274 272 270 267 265 263 263 261 261 261 259 259 258 258 258 258 257 255 254 253 253 255 253 252 251 250 251 251 250 250 251 251 252 252 252 252 252 253 252 253 254 254 258 262 262 260 260 264 267
274 275 273 271 270 267 274 277 277 278 277 278 279 279 278 277 276 275 275 276 276 276 276 275 274 275 273 273 274 274 274 275 275 274 272 273 273 273 272 269 266 264 263 261 260 259 259 258 257 257 258 258 256 255 254 254 253 252 252 254 253 252 250 250 250 250 251 251 251 253 253 252 252 253 253 253 253 253 254 254 256 262 264 265 265 267
Wind_Speed
1 3 6 8 9 10 9 12 13 9 3 1 2 2 5 6 6 4 4 6 0 2 6 6 4 4 8 4 4 5 4 8 6 7 6 5 5 6 6 6 6 8 7 5 6 9 9 10 9 8 9 9 12 13 13 14 14 13 11 13 14 10 11 10 10 9 8 7 7 8 9 8 7 7 9 10 9 9 9 9 9 9 8 8 8 7
2 4 9 12 9 12 13 9 5 1 0 1 1 2 7 3 9 5 4 1 1 3 3 0 3 8 7 4 6 4 6 7 4 5 6 6 5 5 6 7 7 4 4 8 11 11 10 11 11 10 10 12 15 13 13 13 12 11 13 13 11 11 11 11 9 6 8 6 4 5 5 7 8 9 11 10 10 9 9 12 12 10 9 10 9 8
1 9 11 14 7 1 0 1 4 6 4 1 4 3 3 8 4 10 4 3 2 2 8 2 3 9 4 3 5 6 6 4 4 4 3 5 6 6 6 6 6 7 8 8 7 8 8 9 10 9 10 11 10 11 12 10 12 13 12 11 10 10 10 10 10 9 7 6 7 7 7 6 6 7 6 8 8 9 11 12 12 12 11 11 11 10
4 6 17 3 2 4 2 1 3 2 2 3 1 1 8 3 1 6 3 2 1 1 2 1 4 9 1 4 7 6 3 4 5 7 7 6 7 7 6 5 6 6 7 8 8 8 8 8 9 11 11 9 9 10 11 12 11 10 11 11 11 11 10 10 10 8 6 5 5 7 8 9 10 6 6 10 12 13 14 13 12 12 11 12 11 11
12 5 1 3 4 5 5 2 4 3 5 2 5 5 4 5 5 8 6 2 2 0 1 2 5 7 2 3 2 3 3 6 4 6 7 7 6 4 4 6 6 6 6 7 8 8 9 11 11 10 8 7 10 11 11 11 10 8 10 10 11 11 11 10 11 10 7 9 9 7 9 9 10 13 12 12 12 10 9 11 12 11 11 12 11 11
11 6 3 4 1 1 3 3 5 6 4 3 6 12 10 7 6 4 3 4 6 3 2 2 4 3 2 4 3 3 2 3 3 6 6 5 6 6 7 6 5 6 5 5 6 7 7 7 7 8 9 11 11 12 10 9 9 10 10 11 12 11 11 12 12 11 11 11 11 11 11 11 10 11 12 11 9 10 10 8 6 11 12 12 11 11
7 1 5 6 4 3 3 4 3 7 5 1 6 8 11 7 4 3 2 2 2 2 1 2 0 6 5 1 5 4 3 4 3 4 3 5 5 5 5 4 5 5 6 6 6 6 8 7 8 10 12 10 11 9 7 8 9 10 10 11 12 12 11 11 11 12 10 12 11 12 11 9 9 9 6 4 5 6 6 8 11 9 11 11 12 11
2 2 2 2 4 4 4 5 5 9 5 4 2 3 3 4 5 4 4 4 4 1 4 0 1 5 3 8 2 7 7 3 3 2 3 3 3 4 3 4 4 5 4 4 5 6 6 7 9 10 9 9 8 6 7 9 9 11 11 12 12 12 12 11 10 13 11 11 10 11 11 10 10 9 7 8 7 8 8 12 11 10 10 11 11 11
2 0 3 3 2 3 8 4 4 7 6 3 0 5 3 4 3 4 2 2 0 1 6 5 1 2 4 6 2 7 6 2 3 3 1 2 2 2 3 3 3 3 3 3 4 6 6 7 8 7 9 6 6 7 9 9 8 8 9 11 13 14 13 12 13 13 13 12 11 10 9 11 8 8 7 7 9 10 10 13 11 11 11 11 12 12
1 0 3 7 6 7 3 1 5 11 5 2 5 6 6 6 5 3 2 2 1 1 5 5 2 3 6 5 1 0 2 5 6 6 4 3 2 1 1 1 2 3 3 3 4 4 5 5 6 5 4 8 7 6 7 7 8 8 8 11 15 14 11 11 12 13 14 13 11 13 12 13 10 8 8 9 11 10 9 11 10 9 10 9 11 11
1 4 6 4 5 3 4 2 1 0 1 4 4 4 4 7 3 3 6 2 1 4 6 11 8 6 6 4 5 6 5 1 6 1 2 2 1 0 0 1 1 2 3 3 4 4 4 4 5 4 9 6 6 6 7 8 8 7 9 10 15 11 10 11 11 12 12 11 11 12 12 12 11 10 10 11 11 10 11 10 9 8 8 8 8 9
3 2 1 1 3 3 3 3 4 2 1 3 1 2 4 3 6 2 3 4 1 7 5 2 4 4 6 4 3 2 2 2 7 9 10 7 5 4 3 1 1 2 2 3 4 4 4 5 6 5 8 7 6 7 9 8 8 9 8 9 13 11 11 10 10 11 11 10 11 10 10 12 10 10 10 11 10 9 10 9 9 7 8 9 7 8
3 6 2 5 4 8 2 7 3 4 2 4 5 5 2 4 6 3 2 2 5 5 0 2 3 1 9 5 0 3 3 4 3 4 12 11 8 6 4 2 1 1 2 3 3 3 3 4 4 6 5 5 7 8 7 8 7 7 8 9 13 11 9 10 9 11 10 10 9 9 9 8 8 9 9 8 9 7 8 7 8 9 9 8 10 10
6 2 1 3 3 4 6 6 2 0 1 5 5 4 5 0 1 3 5 2 5 5 3 1 0 4 3 4 1 3 3 4 6 3 8 10 10 8 5 3 1 1 1 1 2 2 2 3 4 4 4 5 5 6 7 6 7 6 7 7 11 8 7 8 9 9 10 10 8 8 8 7 7 8 8 8 8 6 6 6 7 7 7 7 8 8
1 3 5 6 4 2 6 8 9 5 8 7 2 7 7 7 5 4 3 4 5 4 2 5 1 5 2 2 2 2 2 3 3 5 7 6 5 4 3 3 2 1 1 1 1 2 3 3 3 4 4 5 4 5 5 5 5 6 7 7 8 8 7 7 8 8 9 8 8 7 7 7 7 7 7 6 6 6 7 6 7 6 6 6 6 6
6 5 4 3 1 2 7 0 6 5 5 1 3 5 5 7 5 4 4 2 2 2 3 1 5 3 3 0 1 1 3 5 4 6 6 6 4 4 4 4 4 3 2 1 2 2 1 2 2 3 4 4 4 4 4 5 4 6 5 5 5 6 5 5 6 6 6 5 5 5 7 7 6 6 6 5 5 5 5 5 6 6 5 5 5 5
1 3 1 4 2 2 3 4 1 3 5 4 4 4 6 2 4 1 2 1 1 2 8 2 6 3 0 1 3 2 4 3 3 4 5 5 5 4 5 5 4 4 3 3 3 3 3 1 1 2 3 4 4 4 4 4 4 5 4 5 6 5 4 5 4 5 4 4 5 5 5 5 5 5 6 5 5 4 4 4 4 4 4 3 4 4
4 5 1 4 3 0 0 1 2 3 4 7 2 7 2 2 4 4 4 2 3 4 7 3 6 4 1 8 1 1 2 2 1 4 4 4 4 6 6 6 6 5 4 4 3 3 3 3 3 2 2 3 4 4 4 4 3 3 4 4 5 5 6 4 4 4 4 4 4 4 4 4 4 4 4 4 4 3 4 4 4 4 5 5 5 4
4 5 3 1 2 2 1 1 3 1 1 3 3 2 4 3 1 1 3 4 4 4 5 4 1 4 7 6 2 4 7 8 6 6 6 8 8 8 7 6 5 3 3 4 4 4 4 3 3 3 4 3 3 3 3 3 3 3 3 3 4 5 4 3 3 2 3 3 3 3 3 3 3 3 3 3 3 3 5 6 5 6 5 5 6 6
1 3 4 1 2 1 1 4 5 3 1 2 3 3 1 1 2 4 5 3 4 4 1 8 2 9 4 4 10 9 12 10 10 8 11 10 9 8 7 8 7 6 6 6 5 5 5 5 4 5 5 4 4 3 2 3 3 3 3 4 4 4 3 4 4 3 4 3 3 3 3 3 3 3 3 3 4 6 6 6 7 8 8 8 7 7
2 2 5 1 2 2 2 3 8 9 7 1 2 1 0 0 2 3 1 4 4 4 4 3 8 5 3 4 5 6 10 15 16 15 11 11 11 10 10 10 9 8 7 7 7 6 6 5 5 4 4 4 2 1 2 3 3 2 3 3 3 4 3 3 3 3 3 4 5 5 6 6 7 7 6 7 7 7 7 8 8 8 7 7 8 8
2 2 7 1 2 4 6 1 3 5 5 7 9 8 9 7 3 3 9 3 1 3 6 3 12 4 4 1 1 2 6 13 15 14 14 12 11 13 10 6 6 8 7 7 6 5 5 5 4 4 1 0 2 3 3 2 2 2 2 2 3 3 3 3 4 4 4 4 5 6 7 7 6 6 7 7 7 8 7 7 8 8 9 9 9 9
2 2 3 4 6 8 2 0 1 1 1 1 5 5 5 2 4 2 8 6 1 3 4 2 0 9 1 1 1 3 3 7 6 6 9 10 12 10 6 6 7 8 9 8 7 6 5 5 5 5 3 3 3 2 1 1 1 1 0 1 3 3 4 3 3 3 3 4 6 6 5 6 6 6 6 7 6 6 6 6 5 5 6 6 7 6
4 0 0 2 2 3 2 2 1 1 1 1 1 3 3 6 7 8 5 5 4 0 1 1 5 4 1 1 2 1 3 5 6 7 10 10 8 6 7 8 9 8 7 6 6 6 6 6 4 3 3 3 3 3 3 3 1 2 5 4 3 4 4 4 4 3 4 4 5 5 6 7 6 7 6 6 5 6 6 6 5 5 5 5 5 6
1 2 3 1 3 2 5 4 2 2 2 2 2 2 1 2 3 2 4 1 0 6 4 5 13 6 0 1 1 2 3 5 8 7 7 9 7 9 9 9 8 8 8 8 8 8 7 5 5 6 5 5 4 4 3 1 2 3 3 4 4 3 3 3 3 4 4 5 6 6 7 7 7 7 7 7 6 7 7 7 6 6 7 8 8 8
2 3 5 5 9 9 6 5 6 7 8 2 1 0 2 6 4 2 4 3 7 4 10 5 9 2 1 1 1 1 2 2 3 5 4 5 6 7 7 7 7 7 8 8 8 7 9 7 6 5 5 4 4 2 2 1 2 3 3 4 3 4 5 5 5 5 6 6 6 6 7 6 6 6 6 5 6 6 6 7 7 8 8 8 10 10
3 2 6 10 10 12 9 3 1 3 3 5 3 5 6 3 4 4 3 3 8 1 3 5 5 1 6 1 2 4 3 6 8 7 10 9 7 6 5 4 5 6 7 10 10 8 5 5 7 7 6 4 3 3 3 4 3 4 6 6 4 4 5 4 5 5 6 5 5 5 5 5 5 4 4 5 5 6 6 7 8 8 9 9 9 10
2 3 8 8 7 3 3 2 2 3 5 3 6 6 3 4 5 8 10 7 4 2 12 7 3 3 8 6 6 5 5 5 5 4 6 6 7 9 7 3 4 5 5 5 6 8 9 8 6 6 5 4 4 3 4 4 5 5 5 5 4 4 4 4 5 5 5 4 5 4 4 4 4 3 4 4 4 5 5 5 6 6 6 6 7 7
5 6 2 4 3 4 1 3 2 1 1 3 5 4 5 6 4 9 4 6 5 8 14 6 5 5 7 9 6 9 9 10 8 8 11 13 7 1 3 6 8 9 9 8 9 8 8 9 7 6 5 5 5 5 6 6 5 5 5 4 4 4 4 3 4 4 3 3 3 2 2 2 2 3 3 3 3 3 4 5 5 5 6 6 6 6
4 4 3 1 2 2 1 1 2 2 1 3 6 9 8 6 7 6 8 9 9 8 7 8 4 11 11 6 6 8 6 5 6 6 4 4 6 5 4 7 9 10 10 11 11 10 8 8 6 6 6 6 7 7 6 6 5 5 5 4 3 3 1 3 3 3 3 3 2 2 1 2 2 3 3 4 5 5 6 6 7 7 6 7 6 7
4 3 7 0 1 3 1 1 3 1 2 6 9 10 5 0 3 9 7 2 4 5 10 10 11 15 12 4 4 4 4 4 4 6 9 7 4 5 8 9 9 10 10 10 9 9 7 6 5 5 6 7 8 9 8 7 6 5 5 4 3 3 2 3 3 3 3 2 1 1 2 3 4 4 5 6 6 5 6 9 7 7 6 6 6 8
1 3 3 1 2 3 2 2 3 2 0 4 9 13 4 4 9 9 6 5 6 10 10 5 6 10 12 3 3 0 3 6 10 11 8 5 7 7 9 9 8 9 10 10 9 7 7 6 6 7 8 8 8 8 8 8 6 6 5 4 3 2 2 3 3 3 2 1 1 2 4 4 5 5 5 5 5 6 6 6 6 7 7 7 8 7
3 6 4 3 3 3 0 3 2 4 4 9 18 13 9 12 12 1 1 6 13 7 4 7 12 11 5 3 2 5 7 9 6 6 6 7 6 7 9 10 10 9 10 9 9 9 8 8 8 9 8 7 8 8 7 8 7 5 4 3 2 2 2 3 3 2 2 2 3 4 4 5 5 5 5 6 6 6 6 7 7 7 8 8 6 6
3 6 4 3 4 1 1 0 2 2 8 16 2 4 9 9 9 10 11 14 7 7 7 9 10 5 1 4 7 9 7 7 9 10 7 7 7 8 7 6 7 9 8 7 7 8 8 6 6 5 6 6 5 4 5 4 5 5 3 3 2 3 3 4 3 3 3 3 4 4 5 6 5 5 5 5 6 6 7 7 7 7 6 7 7 7
7 5 5 2 5 4 2 1 2 10 16 1 3 1 2 4 5 11 12 7 6 9 9 7 8 6 9 9 9 7 4 4 4 6 6 6 5 7 9 9 8 8 8 8 7 6 7 8 7 6 6 6 6 6 6 5 4 5 3 3 4 4 4 4 3 3 3 3 3 4 4 4 4 5 5 5 6 6 6 6 7 7 7 6 7 8
6 6 3 1 4 4 3 5 6 12 2 2 5 3 2 2 1 0 6 9 10 10 11 10 12 11 9 9 4 1 3 4 2 3 4 4 6 7 7 8 9 7 8 9 11 10 9 10 12 12 10 6 7 5 4 5 4 4 3 3 5 4 4 4 3 3 3 3 2 3 4 4 4 5 5 7 6 6 7 7 6 7 7 6 7 6
9 3 2 3 3 7 4 8 14 6 13 15 13 4 7 5 6 7 6 8 7 6 8 9 12 11 7 3 1 0 0 0 1 4 2 5 5 4 7 7 7 9 9 8 9 11 10 9 9 8 8 8 6 7 5 4 4 4 4 4 3 4 3 3 3 2 2 1 3 3 3 4 4 5 6 6 7 8 7 8 8 6 5 8 7 8
2 8 3 5 4 6 5 4 2 1 9 13 5 0 1 2 4 4 3 7 3 3 8 11 10 10 2 0 2 1 1 2 5 6 6 5 4 5 5 5 4 5 6 6 3 3 5 5 6 7 9 9 7 5 4 3 4 4 4 3 2 3 3 2 1 1 1 2 2 3 3 5 4 5 6 6 7 8 8 7 6 6 5 7 9 9
4 3 2 7 3 4 2 5 6 8 10 6 2 3 1 0 6 4 3 6 5 5 5 6 6 3 5 6 4 3 4 3 7 7 9 5 4 5 7 7 5 5 6 9 11 11 8 8 9 9 8 8 8 5 4 3 4 4 3 2 2 2 1 0 0 0 1 2 2 3 3 3 4 5 6 7 7 7 8 8 8 7 6 7 7 9
3 1 3 1 2 6 6 7 10 4 7 2 3 1 0 1 4 5 2 7 2 4 4 7 7 5 5 6 7 7 8 6 7 8 6 8 9 7 8 7 5 5 4 4 2 6 9 10 10 7 8 8 7 5 5 3 3 3 3 2 2 1 0 2 2 0 0 2 3 3 3 3 4 5 6 8 8 7 7 7 7 7 7 7 6 8
4 1 4 13 11 10 9 5 3 6 5 3 5 5 2 2 5 3 10 7 3 5 6 5 7 8 7 8 7 7 9 8 8 8 3 4 3 2 3 3 3 5 8 8 8 9 9 8 9 10 9 7 7 6 4 3 3 3 2 2 1 2 2 2 1 0 2 2 3 3 4 4 4 7 7 6 8 7 7 6 8 8 7 8 8 7
3 2 4 2 8 11 8 8 10 7 6 7 5 7 5 5 3 9 6 3 9 7 5 9 8 6 8 10 9 9 8 10 7 1 2 5 10 11 7 4 4 4 3 3 7 9 8 8 7 7 6 6 7 6 4 4 4 3 3 1 3 3 2 1 1 1 1 3 3 4 4 5 5 5 6 6 7 8 9 7 7 7 8 7 7 9
10 8 7 9 4 2 2 6 3 9 5 13 9 3 2 5 8 5 3 1 5 6 8 7 7 6 8 7 8 10 9 6 5 6 5 6 6 7 8 9 9 9 9 7 5 5 9 9 9 9 9 7 6 6 4 5 4 3 2 3 4 2 2 2 1 2 2 3 4 4 4 5 6 7 5 6 7 8 10 8 7 7 7 8 8 8
4 5 3 4 5 7 8 9 11 7 4 10 12 8 5 10 6 5 4 2 4 5 6 6 6 8 8 9 9 9 9 9 5 4 4 4 5 5 4 6 6 5 6 8 10 12 9 9 8 8 6 6 5 4 4 5 4 4 4 5 2 2 2 1 1 1 2 3 4 4 5 5 5 6 5 7 7 7 8 9 7 7 6 7 7 8
8 9 8 7 5 9 9 9 2 4 8 7 9 7 8 11 6 7 4 4 5 6 5 5 7 7 8 9 8 8 7 8 10 8 8 10 10 10 10 12 13 14 14 13 11 9 8 11 11 8 6 5 4 3 4 4 6 4 5 2 3 1 1 1 1 2 4 4 4 4 5 5 6 6 6 6 6 7 8 8 6 7 5 6 7 7
3 2 4 3 5 2 3 5 0 1 3 8 7 5 7 7 4 4 6 6 4 5 8 7 7 7 7 8 7 6 7 9 8 7 7 7 7 8 7 5 5 3 4 4 5 8 6 6 7 8 8 4 4 4 4 4 5 5 3 2 2 1 1 1 1 2 4 4 4 5 5 6 7 6 6 7 6 7 7 8 7 7 7 6 7 7
4 2 2 3 3 3 6 3 5 6 3 6 11 9 5 4 6 5 5 6 6 5 6 5 7 7 8 7 9 10 10 10 9 9 7 6 7 8 8 10 10 11 12 12 9 9 8 8 9 8 7 7 4 4 4 4 3 4 2 2 2 1 1 1 1 3 4 5 5 4 4 6 6 6 6 5 5 5 6 6 6 6 7 7 8 8
4 5 4 8 3 6 6 4 8 3 1 5 8 8 9 12 9 5 7 7 7 4 4 6 4 5 2 4 9 9 12 10 8 9 7 8 9 9 9 10 10 7 6 5 8 8 6 8 9 8 7 7 6 5 4 4 4 3 3 2 2 1 0 1 2 3 4 5 4 5 5 6 7 8 6 6 5 6 7 6 5 6 7 8 8 8
4 5 5 5 6 3 1 4 3 2 3 5 6 7 10 9 8 7 8 8 6 6 7 6 5 7 5 9 7 7 8 10 8 8 9 8 7 7 9 11 11 10 9 10 9 9 11 9 8 7 7 5 4 5 4 4 3 3 3 3 2 2 1 2 3 3 4 4 4 6 4 5 6 6 6 7 6 6 6 8 7 8 9 9 9 9
4 8 3 4 3 2 6 9 5 2 4 7 10 14 13 9 6 7 5 4 6 7 8 8 9 7 8 7 6 6 8 10 10 7 8 10 9 8 6 6 6 7 6 5 6 6 6 6 8 8 7 5 5 5 4 4 3 3 3 2 2 2 2 2 2 3 4 4 4 5 5 5 5 5 6 6 7 8 8 9 15 12 9 8 14 20
10 13 7 9 8 6 9 12 9 10 6 8 11 10 7 6 6 8 10 11 10 9 9 7 8 8 6 9 7 8 9 10 12 7 6 7 10 8 7 9 10 9 9 9 10 8 7 6 5 7 7 6 4 4 4 4 3 3 3 2 2 3 3 3 2 3 4 4 4 5 5 5 5 5 5 5 6 6 8 11 11 14 16 16 15 18
Wind_Direction
109 141 183 214 220 204 208 202 207 222 175 108 109 152 223 231 271 283 273 258 104 319 248 261 284 258 272 292 340 356 18 58 62 69 68 58 53 46 43 41 35 37 27 351 13 17 14 13 12 13 19 18 29 27 24 31 30 31 29 33 30 15 21 28 22 25 28 29 32 44 49 58 36 38 43 43 30 36 33 33 38 39 37 42 45 38
77 185 233 227 218 201 211 218 240 343 94 182 236 230 273 211 262 255 253 354 321 166 294 43 294 275 263 341 4 11 54 46 47 78 69 68 58 50 44 38 30 17 14 18 21 15 16 16 15 19 25 22 30 18 23 29 29 30 32 37 29 23 26 28 25 20 42 27 33 68 55 71 47 40 40 34 27 25 35 33 29 27 31 36 36 35
155 206 233 232 230 39 40 152 188 204 231 168 213 241 290 267 247 275 275 321 277 108 261 347 296 283 318 21 27 48 59 58 47 56 65 73 59 47 37 34 27 27 25 22 20 18 20 18 20 27 29 30 30 27 26 19 31 31 34 32 34 31 31 26 22 29 33 25 33 49 42 45 76 56 55 58 41 34 37 35 30 26 24 26 28 24
250 268 246 250 113 204 286 116 114 101 96 159 128 135 234 230 14 300 286 1 14 176 272 222 261 274 36 70 60 32 56 77 61 65 65 61 67 60 49 37 32 25 23 25 16 18 17 24 28 31 30 23 31 33 27 22 27 32 33 33 35 34 34 31 24 34 32 49 57 56 60 57 64 53 34 45 37 31 33 32 28 31 27 28 31 25
215 224 292 129 155 158 223 180 141 142 240 262 187 210 242 244 228 185 254 319 294 21 68 336 293 292 271 201 66 62 64 70 42 55 54 46 49 52 54 49 33 37 21 22 20 19 21 28 29 29 26 23 38 36 30 23 23 33 34 35 39 37 34 32 27 27 34 44 45 44 52 48 42 32 30 31 26 26 32 35 30 24 28 30 32 27
271 253 104 69 85 142 194 232 195 143 229 307 226 203 219 221 223 256 318 356 9 339 338 67 342 304 318 287 171 167 58 45 24 54 43 39 34 33 42 33 22 28 28 29 23 21 21 29 29 32 32 34 33 34 26 21 22 29 37 38 40 42 36 31 27 26 42 48 51 49 49 45 47 44 30 28 15 15 24 26 23 31 29 28 30 28
227 267 174 200 152 162 177 216 236 163 183 74 272 195 219 213 199 167 188 85 291 225 299 43 66 267 320 269 195 160 100 83 34 50 48 35 35 38 32 29 24 22 17 18 28 23 31 22 36 33 34 28 33 24 21 31 27 29 38 44 46 46 41 33 33 33 42 51 51 57 62 62 60 66 43 34 31 33 24 35 33 28 29 28 29 25
165 317 164 100 122 147 181 248 234 159 125 237 255 137 143 153 174 190 147 164 226 273 298 22 168 252 303 285 191 151 119 98 74 52 37 47 40 37 35 25 23 17 16 16 22 24 27 30 34 38 29 31 26 12 31 41 34 32 34 45 49 49 46 38 36 42 42 54 51 56 57 53 52 53 47 30 30 35 33 39 29 29 27 27 30 27
145 264 156 171 162 150 211 208 175 163 143 222 219 117 131 153 166 134 117 148 231 27 286 313 304 309 261 254 33 144 123 215 184 178 128 82 60 48 41 25 16 16 10 18 30 28 27 30 30 30 38 22 27 28 38 40 39 36 34 47 55 52 49 40 41 47 45 52 55 58 58 60 47 51 45 43 41 39 33 43 29 32 27 27 28 30
336 189 231 168 149 217 216 331 165 164 194 251 139 89 79 76 66 92 100 97 337 74 263 253 181 239 273 269 73 333 276 210 202 194 175 150 132 112 77 43 29 15 24 18 34 33 33 28 32 24 45 42 31 27 40 46 48 45 43 46 54 52 51 46 48 51 51 51 54 57 54 59 50 42 44 48 43 39 36 45 35 31 31 25 27 24
261 287 162 129 194 207 128 61 121 273 95 122 86 68 16 38 32 31 60 93 46 256 242 216 202 174 289 268 201 157 212 196 147 135 146 130 110 154 247 75 52 34 15 20 30 31 34 29 39 26 53 43 36 33 45 47 46 47 49 50 57 50 53 51 52 54 56 56 57 62 61 60 57 49 51 50 43 37 38 40 33 31 28 29 28 23
347 357 327 251 90 103 97 75 27 65 88 114 83 116 34 336 13 31 342 41 172 267 261 290 219 172 194 288 281 238 324 250 188 180 172 170 173 181 183 180 80 25 22 27 41 32 24 40 39 45 54 45 37 45 46 44 45 48 49 54 63 49 49 51 53 58 59 62 61 65 65 65 61 58 56 54 49 37 41 35 33 23 29 24 25 26
284 235 233 324 201 134 98 76 345 22 13 79 80 50 103 263 30 314 17 287 214 223 300 5 137 17 242 223 200 307 307 315 280 215 174 160 169 179 182 184 67 38 38 40 45 40 34 53 50 54 53 53 46 49 47 46 48 49 53 54 65 50 46 51 50 58 57 59 58 60 64 66 65 64 64 61 58 44 44 35 34 29 28 18 22 18
280 284 3 253 354 212 136 146 179 128 227 120 147 136 91 286 8 274 274 236 308 290 287 201 354 278 249 292 115 270 306 298 284 211 144 154 162 164 165 161 130 60 46 49 52 68 72 77 76 69 74 67 61 55 53 51 55 53 57 53 67 60 48 52 54 54 58 54 54 52 57 58 58 59 59 56 57 48 50 42 42 38 30 25 24 14
233 336 273 146 228 175 171 190 184 163 163 203 113 146 180 141 153 238 189 225 232 219 288 282 59 230 131 213 329 269 312 351 22 92 123 134 140 143 141 133 122 97 69 61 100 111 110 92 89 88 74 74 74 65 59 62 61 66 63 58 65 64 46 54 56 56 57 54 49 51 55 57 55 59 58 56 53 49 47 39 42 37 30 29 14 15
199 217 257 239 246 140 179 243 116 99 62 158 159 79 89 232 132 231 205 162 257 323 328 198 207 196 165 279 268 37 56 46 51 97 119 124 121 124 137 162 175 173 172 185 176 154 127 114 102 93 86 83 81 77 71 66 67 72 72 73 71 73 65 62 65 62 66 61 58 55 58 55 56 57 58 55 46 44 45 41 41 31 28 19 8 1
57 289 272 329 79 150 197 156 236 147 210 218 102 191 209 122 109 45 5 34 65 39 258 144 305 300 272 78 20 360 59 39 71 107 129 142 154 162 178 188 191 190 187 195 195 181 160 155 147 126 120 104 90 86 85 85 85 93 85 78 69 64 60 59 62 69 68 68 68 60 66 65 66 64 63 62 56 51 41 46 37 36 14 8 9 353
149 236 285 113 232 330 198 151 101 28 151 98 161 234 134 129 114 134 229 331 66 208 267 88 213 280 52 281 56 9 83 170 167 175 172 179 180 184 201 193 194 193 193 196 200 201 188 173 164 167 156 137 130 126 121 120 131 114 111 97 87 72 68 54 60 66 66 70 72 71 67 66 68 69 67 63 56 48 44 32 31 17 16 10 356 357
124 284 284 246 141 301 358 104 36 349 30 147 191 207 118 236 227 312 86 271 273 260 268 294 249 251 192 240 113 244 191 197 193 203 188 201 201 203 203 209 209 205 187 191 200 197 191 186 179 166 156 168 155 152 151 156 146 122 103 104 99 95 98 100 84 86 80 71 77 80 73 65 55 50 54 54 49 40 37 24 14 12 1 353 357 358
37 185 289 326 136 274 27 89 202 225 341 96 87 83 101 117 189 127 201 186 120 269 13 285 356 259 199 222 187 209 189 176 182 191 207 201 202 202 204 202 196 192 192 193 190 191 184 182 182 173 164 148 144 136 136 140 132 88 94 87 72 74 68 61 53 55 51 39 51 40 50 40 41 52 35 43 38 29 29 18 11 4 3 358 352 354
188 126 230 296 305 46 182 188 210 167 167 133 141 255 222 7 229 97 49 143 195 189 201 243 291 275 270 207 182 216 174 181 181 189 193 197 203 206 205 195 190 186 190 193 189 188 185 185 190 187 178 170 175 178 136 100 100 107 89 73 79 80 47 49 34 49 35 29 22 31 22 18 15 5 11 13 19 21 14 11 6 2 354 347 357 353
134 175 201 195 131 219 235 256 192 182 190 170 173 201 188 139 186 215 251 80 113 145 233 175 258 284 261 136 182 208 197 181 196 182 184 193 200 204 205 191 179 189 200 194 194 187 183 186 185 195 183 35 75 81 88 35 66 52 44 31 26 38 28 36 10 19 10 19 25 32 18 13 12 12 11 15 14 15 10 7 4 354 355 355 345 355
166 149 112 195 200 199 234 34 228 221 105 169 166 232 157 148 99 126 244 235 43 249 100 180 279 259 245 279 292 232 200 203 181 169 185 195 205 207 200 189 199 197 190 190 187 185 185 184 183 187 193 174 158 159 143 83 126 175 234 19 28 27 3 16 343 4 20 28 35 22 29 31 23 16 20 17 13 9 4 2 354 350 354 341 338 343
92 76 231 291 341 320 322 311 67 115 131 49 4 71 120 182 192 209 233 186 166 294 238 315 230 257 297 19 301 224 189 179 176 177 190 200 203 207 199 201 200 194 195 184 179 181 188 189 189 167 164 170 171 184 204 216 248 11 27 23 28 33 360 3 6 10 34 31 44 36 37 32 18 17 11 10 2 2 356 357 354 349 355 340 338 341
77 274 109 307 353 356 343 343 346 344 53 176 194 217 153 113 81 141 96 135 231 214 176 157 253 248 265 17 358 74 114 168 184 205 189 189 206 205 205 206 201 194 180 180 181 188 192 194 187 188 181 186 195 202 208 43 39 59 41 34 32 31 10 22 12 45 48 54 54 38 35 21 14 9 2 359 357 354 353 354 354 355 354 348 347 348
198 185 145 203 230 244 234 184 216 224 218 218 197 235 233 165 161 109 241 182 225 195 188 216 253 275 287 332 74 44 114 183 234 214 228 220 206 204 212 206 196 184 186 179 185 191 199 199 196 190 197 200 203 177 98 112 100 81 89 57 49 63 52 42 52 55 58 46 50 35 26 14 6 359 352 352 351 352 353 355 359 353 353 352 345 343
183 150 190 213 223 238 242 232 258 94 71 174 238 186 206 172 182 168 117 172 215 325 293 249 243 333 301 150 248 244 212 190 210 201 204 217 233 234 228 208 195 194 189 189 192 195 191 199 201 199 198 188 145 134 149 131 109 92 88 70 52 58 63 49 54 52 56 50 51 39 20 6 351 342 348 354 352 355 359 1 356 352 347 347 343 339
100 198 224 223 245 242 161 192 217 161 184 224 173 229 195 165 163 173 197 217 158 118 252 238 139 181 249 242 216 225 229 237 244 219 214 233 237 225 213 185 184 192 212 206 200 193 195 198 199 196 184 146 143 129 108 95 104 107 99 95 71 57 62 50 60 54 52 49 43 34 4 352 330 351 356 351 4 358 358 352 344 340 336 336 336 333
159 213 242 130 256 150 219 128 104 79 154 179 203 220 203 188 162 181 212 207 199 209 253 251 160 208 245 247 200 212 206 206 209 212 211 215 228 198 153 181 194 204 203 201 207 198 191 195 194 189 165 160 142 138 128 121 112 106 96 88 82 69 59 60 70 61 64 59 59 18 345 331 340 6 355 0 355 347 346 339 333 334 334 333 334 337
98 250 183 119 211 116 80 43 23 166 302 301 262 249 235 204 213 207 219 230 218 239 251 257 247 240 242 244 173 219 214 201 224 231 249 253 241 210 192 204 207 206 200 201 202 198 196 192 188 179 162 160 157 146 144 138 134 126 122 117 110 96 85 97 95 93 80 70 57 358 355 351 7 9 356 354 350 351 344 340 341 341 340 341 341 338
138 269 104 319 155 280 315 337 57 127 196 252 260 258 255 72 221 212 227 178 122 260 258 255 255 266 265 221 202 244 224 243 270 252 228 228 215 193 205 213 212 208 205 203 199 197 193 190 181 164 167 170 165 162 154 149 140 135 130 137 135 124 110 98 92 85 80 63 26 360 17 18 12 1 357 355 350 348 347 344 344 341 339 341 341 337
86 236 65 78 143 286 9 63 105 80 85 241 267 259 153 191 245 235 223 196 200 225 235 250 271 261 265 73 181 214 211 216 224 236 240 212 211 207 210 219 211 207 203 200 198 190 189 187 179 176 179 175 169 158 152 149 152 144 141 137 126 117 123 105 98 97 87 71 37 38 27 13 5 358 351 352 350 345 342 338 339 338 336 335 335 335
175 138 143 120 184 231 245 76 84 49 2 294 256 246 190 216 232 249 241 204 216 201 180 210 239 242 256 133 178 241 214 227 241 247 251 246 220 208 213 213 210 205 201 194 191 194 194 191 189 185 177 167 164 161 163 151 143 143 138 132 151 155 124 98 90 81 60 45 45 34 18 8 4 352 349 347 344 337 337 337 333 334 334 330 326 322
126 151 167 181 185 176 26 221 90 57 255 245 27 143 177 210 213 226 241 238 213 158 207 207 236 259 293 233 222 248 224 218 221 234 218 215 205 211 225 221 211 202 198 197 195 195 197 188 185 179 167 158 146 133 128 129 126 125 126 146 164 126 95 92 66 62 47 47 37 23 7 2 356 346 339 336 334 333 331 331 327 324 319 315 321 320
163 165 159 158 140 187 194 79 259 229 245 13 157 307 199 199 185 215 240 255 221 217 230 254 263 251 234 230 233 249 265 262 253 246 239 222 194 197 200 202 203 199 195 190 197 200 191 180 165 149 143 148 144 131 122 114 119 129 142 181 132 93 89 75 76 49 59 51 29 18 360 353 343 334 329 329 326 325 321 319 316 317 317 318 317 319
176 148 146 68 118 42 89 188 237 243 291 227 260 155 105 95 190 198 300 267 243 211 207 219 240 241 242 249 268 269 253 274 283 244 228 229 199 194 187 202 202 185 189 198 190 191 174 175 173 173 165 140 137 136 132 140 148 156 158 108 95 86 84 85 70 63 68 37 17 6 345 343 331 327 326 322 321 319 315 314 310 313 314 309 305 297
161 74 135 193 189 190 210 202 241 1 311 289 275 172 172 181 188 165 234 268 239 185 181 204 233 247 242 266 207 212 358 33 5 307 265 204 217 218 199 206 185 197 199 199 188 184 185 175 165 151 135 141 141 143 147 155 154 140 114 93 89 93 84 79 64 72 56 27 355 343 339 332 327 321 318 317 315 312 311 313 313 310 310 306 303 306
207 170 220 144 260 132 165 240 325 340 253 258 259 292 330 177 140 183 146 278 320 201 190 184 218 239 222 60 147 170 46 56 297 278 264 247 190 205 234 232 217 205 196 176 135 125 134 126 111 125 142 140 138 141 144 148 135 119 105 104 102 89 68 70 63 84 45 350 337 324 324 324 319 310 309 309 305 305 305 305 301 301 310 306 308 305
17 67 173 206 205 75 145 206 218 234 247 236 233 208 271 137 125 102 65 301 265 205 220 176 210 204 180 164 182 136 101 187 247 253 257 237 227 206 212 227 208 203 190 178 169 160 157 147 142 139 134 137 141 151 140 131 122 107 106 108 94 84 84 62 176 99 357 316 315 307 307 307 305 300 300 298 297 299 301 303 301 301 301 293 294 294
63 47 114 87 197 216 206 223 239 222 249 272 229 273 230 142 103 71 28 276 262 231 195 165 194 200 197 183 153 158 155 198 244 255 234 208 206 201 196 196 182 183 178 154 114 142 139 133 126 138 153 159 155 140 141 130 112 110 114 113 104 95 176 214 177 143 310 289 290 291 298 296 297 293 293 293 295 296 292 294 299 297 297 295 290 294
161 283 215 207 217 223 216 251 335 289 274 198 167 182 196 154 78 107 224 233 229 201 206 174 199 193 167 159 169 175 225 198 207 230 231 191 158 208 222 213 199 174 169 163 150 137 143 159 161 163 163 150 144 144 144 133 117 116 123 126 110 205 219 182 138 239 272 281 285 288 290 293 286 290 288 285 290 292 292 291 291 296 293 294 293 288
341 89 331 301 221 224 220 229 233 264 235 171 284 149 175 100 200 213 235 204 152 202 200 194 199 207 166 179 186 206 222 227 239 323 224 192 191 201 180 149 114 86 64 104 143 149 148 149 141 130 130 142 144 147 143 133 121 129 132 131 208 220 175 149 206 252 265 277 281 286 289 286 286 281 285 290 291 293 288 285 283 286 290 287 289 291
187 147 202 202 198 60 158 222 261 255 261 131 134 64 290 144 233 196 162 222 189 189 183 215 211 222 169 212 214 215 234 249 226 225 224 214 198 184 178 174 173 172 164 147 159 187 157 153 162 164 156 151 149 144 147 127 129 143 150 196 225 177 165 192 217 243 262 278 281 281 282 285 287 288 288 287 283 283 286 288 288 282 280 284 286 285
202 111 225 243 183 161 188 194 208 220 113 155 138 174 214 209 191 169 135 199 205 174 192 199 227 211 194 198 213 231 237 245 266 241 245 253 239 234 195 193 191 183 184 193 179 171 167 159 157 153 153 151 149 146 145 136 142 163 183 224 169 170 176 180 235 267 281 277 277 285 288 286 285 281 280 279 282 278 280 285 282 280 275 279 282 288
209 189 176 184 214 160 198 211 215 138 160 196 176 197 204 217 186 180 158 194 180 224 184 173 221 220 201 206 222 221 237 233 233 220 200 220 212 204 196 200 195 193 189 185 180 170 171 169 166 153 149 154 150 148 144 147 150 175 192 210 149 186 190 230 246 283 280 280 283 286 283 285 280 281 277 273 273 280 280 282 283 287 276 274 282 281
289 177 185 85 252 248 273 198 172 71 179 197 238 213 206 232 239 174 203 226 239 208 167 188 213 209 206 204 207 248 231 239 237 234 216 230 229 228 220 210 213 192 160 133 141 165 161 135 140 150 159 163 164 160 157 165 156 172 210 167 164 185 184 209 256 282 277 280 283 284 289 291 286 278 272 270 264 262 267 275 284 282 287 281 276 275
241 158 143 196 259 136 263 143 161 212 188 185 214 233 244 242 223 190 196 215 231 216 208 223 216 215 211 186 198 221 237 235 234 239 229 226 229 225 210 207 204 190 182 185 177 147 146 152 156 169 168 175 183 173 177 175 181 188 197 189 200 191 178 166 239 266 280 284 287 288 286 284 285 285 278 274 273 265 269 270 268 271 276 277 278 277
306 177 154 221 193 175 232 216 217 230 46 218 206 213 233 240 226 191 206 213 217 234 212 224 211 253 214 202 211 214 234 237 224 236 236 229 227 221 212 209 200 188 198 170 152 159 147 161 169 169 172 184 184 178 182 183 196 202 197 212 207 186 135 219 245 260 270 278 282 284 282 279 280 284 290 286 283 288 286 271 260 264 266 272 273 277
180 115 228 178 191 269 358 279 204 59 286 257 241 237 233 226 222 215 217 227 234 246 256 253 202 227 216 229 221 214 232 249 233 227 233 241 236 225 214 208 200 193 167 163 171 169 174 168 165 172 172 188 169 172 183 200 210 201 205 213 192 158 163 239 256 264 277 279 284 280 277 274 280 283 286 292 285 267 263 281 282 272 268 251 244 241
95 237 195 103 182 163 173 222 161 157 247 239 229 226 224 225 209 233 235 222 222 229 237 246 259 235 230 240 219 195 213 241 245 225 234 239 238 230 215 192 173 161 165 159 143 159 150 161 160 164 175 174 163 175 191 207 214 217 213 210 199 157 176 229 253 273 278 275 274 278 280 282 282 285 285 285 293 297 289 268 283 280 277 280 281 282
193 221 143 202 187 216 222 222 195 199 227 229 228 226 212 208 204 225 238 242 245 231 228 227 246 267 243 239 220 205 223 233 248 237 230 241 238 223 195 173 167 168 168 158 150 162 162 160 157 156 168 170 166 184 199 208 215 227 235 204 207 174 197 202 234 262 273 280 277 276 283 287 290 286 282 282 289 293 301 309 302 295 287 283 285 291